Regional Weather Roundup
Issued by NWS Albany, NY

Home | Current Version | Previous Version | Text Only | Print | Product List | Glossary On
Versions: 1 2 3 4 5 6 7 8 9 10 11 12 13 14 15 16 17 18 19 20 21 22 23 24 25 26 27 28 29 30 31 32 33 34 35 36 37 38 39 40 41 42 43 44 45 46 47 48 49 50
000
ASUS41 KALY 061710
RWRALY

NEW YORK STATE HOURLY WEATHER ROUNDUP
NATIONAL WEATHER SERVICE ALBANY NY
1200 PM EST SAT FEB 06 2016

NOTE: "FAIR" INDICATES FEW OR NO CLOUDS BELOW 12,000 FEET WITH NO
SIGNIFICANT WEATHER AND/OR NO OBSTRUCTIONS TO VISIBILITY.

NYZ032-033-038>043-046>054-057>066-NYZ062>081-061800-
EAST


CITY           SKY/WX    TMP DP  RH WIND       PRES   REMARKS
ALBANY         PTSUNNY   38  18  44 S14       30.28F WCI  30
GLENS FALLS    MOSUNNY   36  19  50 S10G17    30.25F WCI  28
POUGHKEEPSIE   MOSUNNY   38  17  42 SW8       30.34F WCI  32
NEWBURGH       PTSUNNY   37  19  48 SW8       30.34F WCI  31
MONTGOMERY     CLOUDY    38  20  48 SW12      30.32F WCI  30
WHITE PLAINS   CLOUDY    35  17  47 SW6       30.35F WCI  30
ISLIP          CLOUDY    36  22  56 SW7       30.38F WCI  30
NEW YORK CITY  PTSUNNY   38  19  46 SW12      30.39F WCI  30
CENTRAL PARK   MOSUNNY   38  20  48 VRB6      30.41F WCI  33
$$

NYZ005>009-017-018-044>046-055-056-061800-
CENTRAL


CITY           SKY/WX    TMP DP  RH WIND       PRES   REMARKS
FULTON         CLOUDY    40  22  48 SW22      30.20F WCI  30
SYRACUSE       PTSUNNY   39  20  46 SW14G26   30.21F WCI  31
ROME           CLOUDY    36  20  52 SW8       30.23F WCI  30
ELMIRA         MOSUNNY   40  21  46 SW12G21   30.22F WCI  33
BINGHAMTON     CLOUDY    34  18  52 SW10G20   30.20F WCI  26
MONTICELLO     MOSUNNY   34  18  51 SW7       30.27F WCI  28
$$

NYZ026>034-041>043-061800-
NORTH


CITY           SKY/WX    TMP DP  RH WIND       PRES   REMARKS
WATERTOWN      CLOUDY    35  25  66 SW14      30.16F WCI  26
FORT DRUM      NOT AVBL
MASSENA        LGT SNOW  32  27  81 SW13      30.14F WCI  22
SARANAC LAKE   CLOUDY    28  23  81 SW12G22   30.07F WCI  18
PLATTSBURGH    CLOUDY    33  23  66 S10       30.16F WCI  25
$$

NYZ001>004-010>016-019>021-061800-
WEST


CITY           SKY/WX    TMP DP  RH WIND       PRES   REMARKS
NIAGARA FALLS  PTSUNNY   37  25  61 SW14      30.21F WCI  28
BUFFALO        CLOUDY    33  26  75 SW14G21   30.21F WCI  23
DUNKIRK        PTSUNNY   33  22  63 SW16G24   30.25F WCI  23
JAMESTOWN      MOSUNNY   30  18  59 SW13G18   30.20F WCI  20
WELLSVILLE     MOSUNNY   34  20  56 SW9       30.18F WCI  27
ROCHESTER      FLURRIES  34  27  75 W14       30.22F WCI  25
PENN YAN       MOSUNNY   37  20  50 W21G26    30.20F WCI  26
$$

             KEY
       WCI = WIND CHILL INDEX
       VSB = VISIBILITY
       HX  = HEAT INDEX
$$



USA.gov is the U.S. government's official web portal to all federal, state and local government web resources and services.